Lufkin, TX

4:13 PM CDT on May 23, 2018 (GMT -0500)
Angelina County

Weather History for KLFK - August, 2013

Change the Weather History Date:

Wednesday, August 7, 2013

  Actual Average Record
Temperature  
Mean Temperature 87 °F 83 °F  
Max Temperature 98 °F 95 °F 105 °F (1962)
Min Temperature 76 °F 72 °F 62 °F (1920)
Degree Days  
Heating Degree Days 0 0  
Month to date heating degree days 0 0  
Since 1 June heating degree days 0 0  
Since 1 July heating degree days 0 0  
Cooling Degree Days 22 18  
Month to date cooling degree days 148 126  
Year to date cooling degree days 1721 1597  
Since 1 June cooling degree days 1207 1128  
Growing Degree Days 36 (Base 50)    
Moisture  
Dew Point 73 °F    
Average Humidity 67    
Maximum Humidity 100    
Minimum Humidity 33    
Precipitation  
Precipitation 0.00 in 0.11 in 1.08 in (1970)
Month to date precipitation 0.08 0.69  
Year to date precipitation 24.81 27.94  
Snow  
Snow 0.00 in - - ()
Month to date snowfall 0.0  
Since 1 June snowfall 0.0  
Since 1 July snowfall 0.0  
Snow Depth 0.00 in    
Sea Level Pressure  
Sea Level Pressure 29.90 in    
Wind  
Wind Speed 7 mph (SSW)    
Max Wind Speed 14 mph    
Max Gust Speed 21 mph    
Visibility 9 miles    
Events      
T = Trace of Precipitation, MM = Missing Value Source: NWS Daily Summary

Daily Weather History Graph

Daily Weather History Graph

Search for Another Location

Airport or City:

Astronomy

Aug. 07, 2013 Rise Set
Actual Time 6:39 AM CDT 8:09 PM CDT
Civil Twilight 6:13 AM CDT 8:35 PM CDT
Nautical Twilight 5:42 AM CDT 9:06 PM CDT
Astronomical Twilight 5:10 AM CDT 9:38 PM CDT
Moon 7:21 AM CDT (8/7) 8:26 PM CDT (8/7)
Length of Visible Light 14h 21m
Length of Day
13h 29m
New Moon, 1% of the Moon is Illuminated
Aug 7
New Moon
Aug 14
First Quarter
Aug 20
Full
Aug 28
Last Quarter
Sep 5
New

Hourly Weather History & Observations

Time (CDT) Temp. Heat Index Dew Point Humidity Pressure Visibility Wind Dir Wind Speed Gust Speed Precip Events Conditions
12:53 AM 81.0 °F 87.3 °F 75.9 °F 85% 29.91 in 10.0 mi South 5.8 mph - N/A   Clear
1:53 AM 79.0 °F - 75.0 °F 88% 29.93 in 10.0 mi South 4.6 mph - N/A   Clear
2:53 AM 78.1 °F - 75.0 °F 90% 29.91 in 10.0 mi SSW 8.1 mph - N/A   Clear
3:53 AM 77.0 °F - 75.0 °F 94% 29.91 in 9.0 mi SSW 8.1 mph - N/A   Clear
4:41 AM 77.0 °F - 75.2 °F 94% 29.91 in 8.0 mi SSW 8.1 mph - N/A   Partly Cloudy
4:53 AM 77.0 °F - 75.0 °F 94% 29.90 in 8.0 mi SSW 9.2 mph - N/A   Scattered Clouds
5:17 AM 77.0 °F - 75.2 °F 94% 29.90 in 8.0 mi SSW 9.2 mph - N/A   Mostly Cloudy
5:53 AM 75.9 °F - 75.0 °F 97% 29.88 in 8.0 mi SSW 10.4 mph - N/A   Scattered Clouds
6:47 AM 75.2 °F - 75.2 °F 100% 29.91 in 7.0 mi South 6.9 mph - N/A   Mostly Cloudy
6:53 AM 75.9 °F - 75.0 °F 97% 29.90 in 7.0 mi South 6.9 mph - N/A   Mostly Cloudy
7:50 AM 77.0 °F - 75.2 °F 94% 29.95 in 7.0 mi Calm Calm - N/A   Overcast
7:53 AM 77.0 °F - 75.9 °F 96% 29.94 in 6.0 mi Calm Calm - N/A   Overcast
8:53 AM 80.1 °F 85.1 °F 75.0 °F 85% 29.93 in 9.0 mi SW 6.9 mph - N/A   Mostly Cloudy
9:05 AM 80.6 °F 86.2 °F 75.2 °F 84% 29.94 in 10.0 mi SW 11.5 mph - N/A   Scattered Clouds
9:41 AM 82.4 °F 88.2 °F 73.4 °F 74% 29.95 in 10.0 mi SW 12.7 mph 18.4 mph N/A   Mostly Cloudy
9:53 AM 84.0 °F 91.2 °F 73.9 °F 72% 29.94 in 10.0 mi SW 11.5 mph - N/A   Mostly Cloudy
10:06 AM 84.2 °F 90.9 °F 73.4 °F 70% 29.96 in 10.0 mi WSW 11.5 mph 17.3 mph N/A   Scattered Clouds
10:53 AM 87.1 °F 95.4 °F 73.9 °F 65% 29.95 in 10.0 mi WSW 8.1 mph - N/A   Clear
11:53 AM 90.0 °F 96.4 °F 71.1 °F 54% 29.94 in 10.0 mi South 8.1 mph - N/A   Clear
12:53 PM 91.9 °F 99.5 °F 72.0 °F 52% 29.93 in 10.0 mi South 10.4 mph - N/A   Clear
1:53 PM 93.9 °F 100.8 °F 71.1 °F 47% 29.90 in 10.0 mi SSE 9.2 mph - N/A   Clear
2:53 PM 96.1 °F 101.0 °F 68.0 °F 40% 29.87 in 10.0 mi SW 9.2 mph - N/A   Clear
3:53 PM 97.0 °F 101.0 °F 66.9 °F 37% 29.86 in 10.0 mi Variable 3.5 mph - N/A   Clear
4:53 PM 98.1 °F 103.0 °F 68.0 °F 37% 29.84 in 10.0 mi WSW 8.1 mph - N/A   Clear
5:53 PM 98.1 °F 101.2 °F 64.9 °F 34% 29.82 in 10.0 mi WSW 6.9 mph - N/A   Clear
6:53 PM 96.1 °F 99.3 °F 66.0 °F 37% 29.81 in 10.0 mi SW 4.6 mph - N/A   Clear
7:53 PM 93.0 °F 97.4 °F 68.0 °F 44% 29.81 in 10.0 mi Calm Calm - N/A   Clear
8:53 PM 87.1 °F 92.8 °F 71.1 °F 59% 29.83 in 10.0 mi SE 10.4 mph - N/A   Clear
9:53 PM 87.1 °F 94.5 °F 73.0 °F 63% 29.86 in 10.0 mi South 11.5 mph - N/A   Clear
10:53 PM 84.9 °F 93.3 °F 75.0 °F 72% 29.88 in 10.0 mi South 10.4 mph 17.3 mph N/A   Clear
11:53 PM 82.0 °F 88.6 °F 75.0 °F 79% 29.89 in 10.0 mi South 5.8 mph - N/A   Clear